• In Portugal
  • List of Countries
  • For 7 days
  • Water Temperature
  • Satellite Maps
  • Weather Map
  • Weather Widgets
  • user-avatar
    Login

    Hourly Weather Hampi

    Today, 25 November, Saturday

    Time Temperature Precipitation Wind Pressure Humidity
    00:00 +26°C° 0 mm 1 mps 716 mmHg 58%
    01:00 +26°C° 0 mm 2 mps 715 mmHg 59%
    02:00 +26°C° 0 mm 2 mps 715 mmHg 60%
    03:00 +25°C° 0 mm 2 mps 715 mmHg 63%
    04:00 +25°C° 0 mm 2 mps 715 mmHg 65%
    05:00 +24°C° 0 mm 2 mps 715 mmHg 68%
    06:00 +25°C° 0 mm 2 mps 716 mmHg 67%
    07:00 +26°C° 0 mm 3 mps 716 mmHg 66%
    08:00 +27°C° 0 mm 4 mps 717 mmHg 65%
    09:00 +28°C° 0 mm 4 mps 717 mmHg 60%
    10:00 +29°C° 0 mm 4 mps 717 mmHg 54%
    11:00 +32°C° 0 mm 4 mps 717 mmHg 49%
    12:00 +32°C° 0 mm 4 mps 716 mmHg 45%
    13:00 +33°C° 0 mm 5 mps 716 mmHg 41%
    14:00 +34°C° 0 mm 5 mps 715 mmHg 38%
    15:00 +33°C° 0 mm 4 mps 715 mmHg 39%
    16:00 +32°C° 0 mm 4 mps 715 mmHg 41%
    17:00 +30°C° 0 mm 3 mps 715 mmHg 43%
    18:00 +29°C° 0 mm 3 mps 715 mmHg 45%
    19:00 +28°C° 0 mm 3 mps 716 mmHg 46%
    20:00 +27°C° 0 mm 2 mps 716 mmHg 48%
    21:00 +26°C° 0 mm 2 mps 716 mmHg 50%
    22:00 +26°C° 0 mm 3 mps 716 mmHg 52%
    23:00 +25°C° 0 mm 3 mps 716 mmHg 54%

    Tomorrow, 26 November, Sunday

    Time Temperature Precipitation Wind Pressure Humidity
    00:00 +25°C° 0 mm 3 mps 716 mmHg 60%
    01:00 +24°C° 0 mm 3 mps 716 mmHg 65%
    02:00 +22°C° 0 mm 3 mps 715 mmHg 71%
    03:00 +22°C° 0 mm 3 mps 715 mmHg 74%
    04:00 +22°C° 0 mm 3 mps 716 mmHg 78%
    05:00 +21°C° 0 mm 2 mps 716 mmHg 82%
    06:00 +22°C° 0 mm 3 mps 716 mmHg 77%
    07:00 +24°C° 0 mm 3 mps 717 mmHg 73%
    08:00 +25°C° 0 mm 4 mps 717 mmHg 69%
    09:00 +27°C° 0 mm 4 mps 717 mmHg 60%
    10:00 +28°C° 0 mm 5 mps 717 mmHg 51%
    11:00 +30°C° 0 mm 5 mps 717 mmHg 42%
    12:00 +32°C° 0 mm 5 mps 717 mmHg 38%
    13:00 +33°C° 0 mm 5 mps 716 mmHg 34%
    14:00 +33°C° 0 mm 5 mps 715 mmHg 30%
    15:00 +32°C° 0 mm 4 mps 715 mmHg 33%
    16:00 +30°C° 0 mm 4 mps 715 mmHg 35%
    17:00 +29°C° 0 mm 3 mps 715 mmHg 37%
    18:00 +28°C° 0 mm 3 mps 715 mmHg 39%
    19:00 +27°C° 0 mm 3 mps 716 mmHg 42%
    20:00 +26°C° 0 mm 3 mps 716 mmHg 44%
    21:00 +25°C° 0 mm 3 mps 716 mmHg 47%
    22:00 +25°C° 0 mm 3 mps 716 mmHg 51%
    23:00 +24°C° 0 mm 3 mps 716 mmHg 54%

    Day after tomorrow, 27 November, Monday

    Time Temperature Precipitation Wind Pressure Humidity
    00:00 +24°C° 0 mm 3 mps 716 mmHg 56%
    01:00 +22°C° 0 mm 3 mps 715 mmHg 58%
    02:00 +22°C° 0 mm 3 mps 715 mmHg 60%
    03:00 +21°C° 0 mm 3 mps 715 mmHg 60%
    04:00 +21°C° 0 mm 3 mps 715 mmHg 61%
    05:00 +21°C° 0 mm 2 mps 715 mmHg 62%
    06:00 +22°C° 0 mm 3 mps 715 mmHg 59%
    07:00 +24°C° 0 mm 3 mps 716 mmHg 57%
    08:00 +25°C° 0 mm 4 mps 717 mmHg 54%
    09:00 +27°C° 0 mm 4 mps 717 mmHg 52%
    10:00 +28°C° 0 mm 5 mps 717 mmHg 49%
    11:00 +30°C° 0 mm 5 mps 717 mmHg 47%
    12:00 +32°C° 0 mm 5 mps 716 mmHg 46%
    13:00 +32°C° 0 mm 5 mps 715 mmHg 45%
    14:00 +33°C° 0 mm 5 mps 714 mmHg 45%
    15:00 +32°C° 0 mm 4 mps 714 mmHg 47%
    16:00 +32°C° 0 mm 4 mps 714 mmHg 50%
    17:00 +30°C° 0 mm 3 mps 714 mmHg 53%
    18:00 +29°C° 0 mm 3 mps 714 mmHg 56%
    19:00 +28°C° 0 mm 3 mps 715 mmHg 60%
    20:00 +27°C° 0 mm 3 mps 715 mmHg 63%
    21:00 +27°C° 0 mm 3 mps 715 mmHg 67%
    22:00 +26°C° 0 mm 3 mps 715 mmHg 71%
    23:00 +26°C° 0 mm 3 mps 715 mmHg 75%

    28 November, Tuesday

    Time Temperature Precipitation Wind Pressure Humidity
    00:00 +25°C° 0 mm 3 mps 715 mmHg 79%
    01:00 +25°C° 0 mm 3 mps 714 mmHg 83%
    02:00 +24°C° 0 mm 3 mps 714 mmHg 87%
    03:00 +24°C° 0 mm 3 mps 714 mmHg 89%
    04:00 +22°C° 0 mm 3 mps 714 mmHg 90%
    05:00 +22°C° 0 mm 3 mps 714 mmHg 92%
    06:00 +24°C° 0 mm 3 mps 715 mmHg 87%
    07:00 +25°C° 0 mm 4 mps 716 mmHg 82%
    08:00 +26°C° 0 mm 5 mps 716 mmHg 77%
    09:00 +27°C° 0 mm 5 mps 716 mmHg 69%
    10:00 +29°C° 0 mm 5 mps 716 mmHg 61%
    11:00 +32°C° 0 mm 6 mps 716 mmHg 53%
    12:00 +32°C° 0 mm 5 mps 715 mmHg 50%
    13:00 +33°C° 0 mm 5 mps 714 mmHg 48%
    14:00 +33°C° 0 mm 5 mps 714 mmHg 46%
    15:00 +33°C° 0 mm 4 mps 714 mmHg 48%
    16:00 +32°C° 0 mm 4 mps 714 mmHg 50%
    17:00 +31°C° 0 mm 3 mps 713 mmHg 52%
    18:00 +30°C° 0 mm 3 mps 714 mmHg 55%
    19:00 +29°C° 0 mm 3 mps 715 mmHg 58%
    20:00 +28°C° 0 mm 3 mps 715 mmHg 61%
    21:00 +27°C° 0 mm 3 mps 715 mmHg 63%
    22:00 +26°C° 0 mm 4 mps 715 mmHg 66%
    23:00 +26°C° 0 mm 4 mps 716 mmHg 68%

    29 November, Wednesday

    Time Temperature Precipitation Wind Pressure Humidity
    00:00 +25°C° 0 mm 4 mps 715 mmHg 71%
    01:00 +25°C° 0 mm 3 mps 715 mmHg 74%
    02:00 +24°C° 0 mm 3 mps 714 mmHg 78%
    03:00 +24°C° 0 mm 3 mps 715 mmHg 78%
    04:00 +22°C° 0 mm 3 mps 715 mmHg 79%
    05:00 +23°C° 0 mm 2 mps 715 mmHg 80%
    06:00 +24°C° 0 mm 3 mps 716 mmHg 74%
    07:00 +25°C° 0 mm 4 mps 717 mmHg 68%
    08:00 +26°C° 0 mm 4 mps 717 mmHg 62%
    09:00 +28°C° 0 mm 4 mps 717 mmHg 54%
    10:00 +29°C° 0 mm 5 mps 717 mmHg 47%
    11:00 +32°C° 0 mm 5 mps 717 mmHg 39%
    12:00 +33°C° 0 mm 5 mps 716 mmHg 37%
    13:00 +33°C° 0 mm 4 mps 716 mmHg 36%
    14:00 +34°C° 0 mm 4 mps 715 mmHg 34%
    15:00 +33°C° 0 mm 4 mps 715 mmHg 37%
    16:00 +31°C° 0 mm 3 mps 715 mmHg 39%
    17:00 +30°C° 0 mm 3 mps 715 mmHg 42%
    18:00 +29°C° 0 mm 3 mps 715 mmHg 44%
    19:00 +28°C° 0 mm 3 mps 716 mmHg 47%
    20:00 +27°C° 0 mm 3 mps 716 mmHg 49%
    21:00 +27°C° 0 mm 2 mps 716 mmHg 51%
    22:00 +26°C° 0 mm 2 mps 716 mmHg 53%
    23:00 +26°C° 0 mm 2 mps 716 mmHg 55%

    30 November, Thursday

    Time Temperature Precipitation Wind Pressure Humidity
    00:00 +25°C° 0 mm 2 mps 715 mmHg 59%
    01:00 +24°C° 0 mm 3 mps 715 mmHg 63%
    02:00 +24°C° 0 mm 3 mps 715 mmHg 67%
    03:00 +22°C° 0 mm 3 mps 715 mmHg 70%
    04:00 +22°C° 0 mm 3 mps 715 mmHg 73%
    05:00 +22°C° 0 mm 3 mps 715 mmHg 76%
    06:00 +24°C° 0 mm 3 mps 716 mmHg 72%
    07:00 +25°C° 0 mm 3 mps 717 mmHg 68%
    08:00 +26°C° 0 mm 4 mps 717 mmHg 65%
    09:00 +27°C° 0 mm 3 mps 717 mmHg 56%
    10:00 +29°C° 0 mm 3 mps 717 mmHg 48%
    11:00 +31°C° 0 mm 3 mps 717 mmHg 39%
    12:00 +31°C° 0 mm 3 mps 716 mmHg 36%
    13:00 +33°C° 0 mm 3 mps 715 mmHg 32%
    14:00 +34°C° 0 mm 3 mps 714 mmHg 29%
    15:00 +33°C° 0 mm 3 mps 714 mmHg 31%
    16:00 +31°C° 0 mm 2 mps 714 mmHg 33%
    17:00 +30°C° 0 mm 2 mps 714 mmHg 35%
    18:00 +29°C° 0 mm 2 mps 715 mmHg 36%
    19:00 +28°C° 0 mm 2 mps 715 mmHg 38%
    20:00 +27°C° 0 mm 3 mps 716 mmHg 40%
    21:00 +26°C° 0 mm 2 mps 716 mmHg 41%
    22:00 +26°C° 0 mm 2 mps 716 mmHg 43%
    23:00 +25°C° 0 mm 2 mps 716 mmHg 44%
    Show more